TIANSHI 01

导读

TIANSHI 01(NORAD编号68415)是中国发射的低轨道试验卫星,隶属于"天时"系列卫星任务,该卫星主要用于开展空间环境探测及相关技术验证试验。作为中国商业航天领域的一颗小型卫星,TIANSHI 01承载着新技术在轨验证的使命,为后续同类型卫星的发展积累了宝贵数据。 该卫星通过长征系列运载火箭送入预定轨道,目前运行在近地轨道,由NORAD(北美防空司令部)分配编号68415用于轨道监测和空间目标管理。它的成功发射进一步丰富了中国低轨卫星星座布局,推动了航天技术的持续创新与发展。

基本信息
目录编号:
68415
目录名称:
TIANSHI 01
国际标识:
2026-066D
轨道中心:
EARTH
卫星名称:
TIANSHI 01
卫星全名:
TIANSHI 01
卫星状态:
在轨 (已飞行159 天)
发射日期:
2026-03-30 UTC
国别 :
中国 (CN)
星等 :
--
轨道信息
数据来源 国际轨道数据
星历时间: 2026-09-05T16:06:49+0800
11小时前
查看轨道信息
半长轴: 6979.447km
偏心率: 0.0024886
轨道倾角: 84.970°
近地点辐角 339.130°
升交点赤经 176.720°
平近点角 20.890°
近地点: 583.94km
远地点: 618.68km
周期: 96.714分钟
每日圈数: 14.889198
详细信息
使用方式:
暂无
2D轨道图
3D轨道图
轨道高度分析图
轨道倾角分析图
轨道综合分析图
查看轨道综合分析图
交会数据列表
事件ID 空间交会对象 最接近时刻(TCA) 交会距离 交会风险概率(CRP) 交会风险指数(CRI) 操作
CDM_260903-070501-575606-841525
SL-8 DEB (15756)
2026-09-03T
07:05:54+0000
1.811 km
极远距离
3.717838E-6 低风险 0.46
CDM_260906-182704-005506-841524
CANX-4 (40055)
2026-09-06T
18:27:24+0000
2.391 km
极远距离
1.154452E-6 低风险 0.36